LAOSAT 1

Last updated on Sun Apr 12 2026 00:02:54 GMT+0000 (Coordinated Universal Time)

1 41034U 15067A 26101.49141918 .00000000 00000+0 00000+0 0 9996 2 41034 0.0134 65.8461 0001695 288.8457 150.4077 1.00265163 38194
UTC large
Height (km)
Speed (km/s)
/
Latitude / Longitude
Inclination (degrees)
Orbital Period (minutes)
Azimuth
Elevation
Range (km)
Doppler Factor

Next 0 passes for location: London (51.5072 / 0.1276)

Sorry there are no passes over London.
LAOSAT 1